Regional Weather Roundup
Issued by NWS Northern Indiana

Home | Current Version | Previous Version | Text Only | Print | Product List | Glossary Off
Versions: 1 2 3 4 5 6 7 8 9 10 11 12 13 14 15 16 17 18 19 20 21 22 23 24 25 26 27 28 29 30 31 32 33 34 35 36 37 38 39 40 41 42 43 44 45 46 47 48 49 50

000
ASUS43 KIWX 252201
RWRIWX

KIWX WEATHER ROUNDUP
NATIONAL WEATHER SERVICE NORTHERN INDIANA
600 PM EDT TUE JUL 25 2017

NOTE: "FAIR" INDICATES FEW OR NO CLOUDS BELOW 12,000 FEET WITH NO
SIGNIFICANT WEATHER AND/OR OBSTRUCTIONS TO VISIBILITY.

* THESE STATIONS ARE NOT UNDER NWS QUALITY CONTROL. THEY ALSO MAY NOT
  REPORT WEATHER SUCH AS PRECIPITATION OR FOG.

INZ001>027-252300-
NORTHERN INDIANA

CITY           SKY/WX    TMP DP  RH WIND       PRES   REMARKS
GARY*          PTSUNNY   79  50  36 SE6       30.18F
MICHIGAN CITY* MOSUNNY   79  54  41 SE5       30.19F
SOUTH BEND     SUNNY     78  54  43 VRB3      30.19F
ELKHART*       SUNNY     79  52  38 E7        30.20F
GOSHEN         SUNNY     80  52  37 E7        30.19F
MONTICELLO*    SUNNY     78  57  47 E6        30.17F
FORT WAYNE     MOSUNNY   77  57  50 E12       30.20F
PERU/GRISSOM   SUNNY     78  59  52 E9        30.18S

$$
INZ028>050-252300-
CENTRAL INDIANA

CITY           SKY/WX    TMP DP  RH WIND       PRES   REMARKS
LAFAYETTE      SUNNY     78  61  55 E7        30.16S
KOKOMO*        SUNNY     77  59  53 E9        30.19S
MUNCIE*        SUNNY     79  60  52 E6        30.18F
INDIANAPOLIS   MOSUNNY   80  57  45 E7        30.15F

$$
MIZ043>046-050>051-056>058-064>065-071>073-077>080-252300-
SOUTHWEST LOWER MICHIGAN

CITY           SKY/WX    TMP DP  RH WIND       PRES   REMARKS
BATTLE CREEK   SUNNY     79  51  37 SW6       30.21S
BENTON HARBOR  MOSUNNY   76  58  53 N7        30.19F
COLDWATER*     SUNNY     77  53  43 SE7       30.20F
HILLSDALE*     PTSUNNY   77  52  41 CALM      30.21F
HOLLAND        CLOUDY    76  59  55 W6        30.19F
GRAND RAPIDS   PTSUNNY   80  51  36 SE9       30.19F
KALAMAZOO      SUNNY     80  49  33 CALM      30.20F
STURGIS*       SUNNY     76  56  49 CALM      30.20F
THREE RIVERS*  FAIR      78  51  40 E7        30.20F

$$
OHZ001>008-015>018-024>025-252300-
NORTHWEST OHIO

CITY           SKY/WX    TMP DP  RH WIND       PRES   REMARKS
DEFIANCE       SUNNY    N/A N/A N/A E9        30.20F
FINDLAY        SUNNY     77  56  48 E10       30.20S
TOLEDO EXPRESS SUNNY     77  54  44 E9        30.20F
TOLEDO METCALF SUNNY     77  59  53 E6        30.21F
LIMA           PTSUNNY   75  61  61 E8        30.21R

$$
AND FOR LAKE MICHIGAN COASTAL AND OPEN LAKE BUOY OBSERVATIONS

STATION/POSITION TEMP    WIND        PRES    VSBY  WAVE
                 AIR SEA DIR/SP/G                  HT/PER
                 (F)     (DEG/KT/KT) (MB)    (MI)  (FT/S)
CALUMET HARBOR    75      40/  8/ 11 1021.2F
MICHIGAN CITY     77     120/ 10/ 11   N/A
BURNS HARBOR      79     110/  9/ 14 1022.0F
SAINT JOSEPH      74     360/  4/  6 1022.7
SOUTH LAKE BUOY   71 71  160/  6/  6 1022.7          1/ 4
4 MI NW BRIDGMAN  73 76   40/  8/ 10 1022.0F         1
MICHIGAN CITY     77 76   CALM  /  2   N/A           1

$$
&&



USA.gov is the U.S. government's official web portal to all federal, state and local government web resources and services.